| time (UTC) | temp F | wind direction | speed MPH | gust MPH | rain 1hr in | rain 24hr in | rain mn in | humidity % | barometer mb |
| 20260502220239 | 63 | 263 | 1.0 | 2.0 | 0.00 | 0.00 | 0.00 | 33 | 1018.5 |
| 20260502215736 | 63 | 318 | 2.0 | 2.0 | 0.00 | 0.00 | 0.00 | 31 | 1018.5 |
| 20260502215233 | 62 | 128 | 0.0 | 0.0 | 0.00 | 0.00 | 0.00 | 32 | 1018.4 |
| 20260502214731 | 62 | 5 | 0.0 | 1.0 | 0.00 | 0.00 | 0.00 | 32 | 1018.4 |
| 20260502214228 | 63 | 35 | 2.0 | 2.0 | 0.00 | 0.00 | 0.00 | 30 | 1018.6 |
| 20260502213725 | 62 | 286 | 0.0 | 2.0 | 0.00 | 0.00 | 0.00 | 32 | 1018.5 |
| 20260502213222 | 63 | 323 | 2.0 | 2.0 | 0.00 | 0.00 | 0.00 | 31 | 1018.6 |
| 20260502212721 | 62 | 55 | 0.0 | 2.0 | 0.00 | 0.00 | 0.00 | 30 | 1018.7 |
| 20260502212219 | 62 | 66 | 0.0 | 0.0 | 0.00 | 0.00 | 0.00 | 32 | 1018.8 |
| 20260502211714 | 62 | 30 | 1.0 | 2.0 | 0.00 | 0.00 | 0.00 | 30 | 1018.7 |
| 20260502211211 | 64 | 316 | 3.0 | 3.0 | 0.00 | 0.00 | 0.00 | 30 | 1018.9 |
| 20260502210708 | 63 | 103 | 0.0 | 1.0 | 0.00 | 0.00 | 0.00 | 30 | 1018.8 |
| 20260502210206 | 63 | 313 | 1.0 | 2.0 | 0.00 | 0.00 | 0.00 | 30 | 1018.9 |
| 20260502205703 | 62 | 322 | 3.0 | 3.0 | 0.00 | 0.00 | 0.00 | 30 | 1018.8 |
| 20260502205158 | 62 | 28 | 1.0 | 2.0 | 0.00 | 0.00 | 0.00 | 29 | 1019.0 |
| 20260502204655 | 62 | 25 | 3.0 | 5.0 | 0.00 | 0.00 | 0.00 | 29 | 1018.9 |
| 20260502204153 | 62 | 352 | 3.0 | 5.0 | 0.00 | 0.00 | 0.00 | 29 | 1019.1 |
| 20260502203650 | 62 | 350 | 2.0 | 2.0 | 0.00 | 0.00 | 0.00 | 29 | 1019.2 |
| 20260502203148 | 63 | 283 | 1.0 | 2.0 | 0.00 | 0.00 | 0.00 | 30 | 1019.3 |
| 20260502202642 | 62 | 1 | 0.0 | 1.0 | 0.00 | 0.00 | 0.00 | 31 | 1019.2 |
| 20260502202141 | 62 | 10 | 2.0 | 2.0 | 0.00 | 0.00 | 0.00 | 32 | 1019.4 |
| 20260502201637 | 62 | 57 | 0.0 | 0.0 | 0.00 | 0.00 | 0.00 | 32 | 1019.4 |
| 20260502201134 | 62 | 29 | 3.0 | 3.0 | 0.00 | 0.00 | 0.00 | 31 | 1019.4 |
| 20260502200629 | 63 | 53 | 0.0 | 2.0 | 0.00 | 0.00 | 0.00 | 32 | 1019.5 |
| 20260502200127 | 63 | 39 | 1.0 | 2.0 | 0.00 | 0.00 | 0.00 | 32 | 1019.5 |
| 20260502195625 | 63 | 354 | 1.0 | 2.0 | 0.00 | 0.00 | 0.00 | 34 | 1019.3 |
| 20260502195120 | 63 | 54 | 0.0 | 2.0 | 0.00 | 0.00 | 0.00 | 32 | 1019.5 |
| 20260502194618 | 62 | 325 | 1.0 | 1.0 | 0.00 | 0.00 | 0.00 | 32 | 1019.5 |
| 20260502194114 | 62 | 230 | 2.0 | 3.0 | 0.00 | 0.00 | 0.00 | 31 | 1019.6 |
| 20260502193611 | 61 | 20 | 1.0 | 1.0 | 0.00 | 0.00 | 0.00 | 33 | 1019.9 |
| 20260502193108 | 62 | 43 | 1.0 | 1.0 | 0.00 | 0.00 | 0.00 | 34 | 1019.5 |
| 20260502192603 | 61 | 34 | 0.0 | 5.0 | 0.00 | 0.00 | 0.00 | 33 | 1019.9 |
| 20260502192101 | 62 | 15 | 2.0 | 3.0 | 0.00 | 0.00 | 0.00 | 32 | 1020.1 |
| 20260502191558 | 62 | 115 | 0.0 | 0.0 | 0.00 | 0.00 | 0.00 | 33 | 1019.9 |
| 20260502191055 | 61 | 31 | 2.0 | 3.0 | 0.00 | 0.00 | 0.00 | 32 | 1020.0 |
| 20260502190553 | 61 | 209 | 1.0 | 2.0 | 0.00 | 0.00 | 0.00 | 32 | 1020.2 |
| 20260502190050 | 61 | 23 | 1.0 | 1.0 | 0.00 | 0.00 | 0.00 | 33 | 1020.0 |
| 20260502185544 | 61 | 44 | 2.0 | 3.0 | 0.00 | 0.00 | 0.00 | 35 | 1020.3 |
| 20260502185042 | 61 | 284 | 2.0 | 3.0 | 0.00 | 0.00 | 0.00 | 31 | 1020.4 |
| 20260502184538 | 60 | 35 | 1.0 | 3.0 | 0.00 | 0.00 | 0.00 | 31 | 1020.4 |
| 20260502184034 | 60 | 23 | 1.0 | 3.0 | 0.00 | 0.00 | 0.00 | 32 | 1020.3 |
| 20260502183530 | 60 | 59 | 3.0 | 5.0 | 0.00 | 0.00 | 0.00 | 30 | 1020.5 |
| 20260502183026 | 60 | 26 | 1.0 | 5.0 | 0.00 | 0.00 | 0.00 | 31 | 1020.6 |
| 20260502182521 | 60 | 295 | 3.0 | 3.0 | 0.00 | 0.00 | 0.00 | 32 | 1020.5 |
| 20260502182018 | 60 | 318 | 2.0 | 3.0 | 0.00 | 0.00 | 0.00 | 34 | 1020.6 |
| 20260502181516 | 60 | 274 | 4.0 | 5.0 | 0.00 | 0.00 | 0.00 | 32 | 1020.8 |
| 20260502181014 | 61 | 37 | 1.0 | 2.0 | 0.00 | 0.00 | 0.00 | 33 | 1020.8 |
| 20260502180511 | 60 | 250 | 2.0 | 2.0 | 0.00 | 0.00 | 0.00 | 33 | 1020.8 |
| 20260502170424 | 59 | 45 | 1.0 | 3.0 | 0.00 | 0.00 | 0.00 | 33 | 1021.3 |
| 20260502163907 | 58 | 28 | 0.0 | 1.0 | 0.00 | 0.00 | 0.00 | 34 | 1021.1 |
| 20260502163403 | 57 | 336 | 3.0 | 3.0 | 0.00 | 0.00 | 0.00 | 34 | 1021.3 |
| 20260502162901 | 57 | 9 | 3.0 | 5.0 | 0.00 | 0.00 | 0.00 | 33 | 1021.3 |
| 20260502162357 | 57 | 358 | 1.0 | 7.0 | 0.00 | 0.00 | 0.00 | 33 | 1021.4 |
| 20260502161855 | 57 | 21 | 1.0 | 2.0 | 0.00 | 0.00 | 0.00 | 34 | 1021.5 |
| 20260502161350 | 57 | 327 | 2.0 | 3.0 | 0.00 | 0.00 | 0.00 | 36 | 1021.5 |
| 20260502160849 | 57 | 14 | 2.0 | 5.0 | 0.00 | 0.00 | 0.00 | 35 | 1021.2 |
| 20260502160347 | 57 | 70 | 3.0 | 5.0 | 0.00 | 0.00 | 0.00 | 37 | 1021.3 |
| 20260502152322 | 56 | 66 | 0.0 | 2.0 | 0.00 | 0.00 | 0.00 | 40 | 1021.3 |
| 20260502151819 | 57 | 325 | 3.0 | 3.0 | 0.00 | 0.00 | 0.00 | 39 | 1021.1 |
| 20260502151316 | 55 | 76 | 1.0 | 5.0 | 0.00 | 0.00 | 0.00 | 41 | 1021.5 |
| 20260502150814 | 56 | 344 | 2.0 | 2.0 | 0.00 | 0.00 | 0.00 | 42 | 1021.4 |
| 20260502150310 | 55 | 50 | 0.0 | 1.0 | 0.00 | 0.00 | 0.00 | 44 | 1021.3 |
| 20260502130658 | 46 | 340 | 2.0 | 2.0 | 0.00 | 0.00 | 0.00 | 65 | 1020.8 |
| 20260502130156 | 45 | 29 | 1.0 | 2.0 | 0.00 | 0.00 | 0.00 | 66 | 1020.8 |
| 20260502123642 | 43 | 30 | 0.0 | 1.0 | 0.00 | 0.00 | 0.00 | 69 | 1020.7 |
| 20260502123138 | 43 | 31 | 0.0 | 2.0 | 0.00 | 0.00 | 0.00 | 69 | 1020.7 |
| 20260502122635 | 42 | 30 | 0.0 | 1.0 | 0.00 | 0.00 | 0.00 | 70 | 1020.6 |
| 20260502122132 | 42 | 30 | 1.0 | 1.0 | 0.00 | 0.00 | 0.00 | 70 | 1020.7 |
| 20260502121630 | 42 | 30 | 1.0 | 1.0 | 0.00 | 0.00 | 0.00 | 71 | 1020.6 |
| 20260502121127 | 41 | 30 | 1.0 | 1.0 | 0.00 | 0.00 | 0.00 | 71 | 1020.6 |
| 20260502120623 | 41 | 30 | 1.0 | 1.0 | 0.00 | 0.00 | 0.00 | 72 | 1020.4 |
| 20260502120120 | 41 | 30 | 1.0 | 1.0 | 0.00 | 0.00 | 0.00 | 73 | 1020.5 |
| 20260502115618 | 40 | 30 | 1.0 | 1.0 | 0.00 | 0.00 | 0.00 | 74 | 1020.3 |
| 20260502115114 | 40 | 30 | 1.0 | 1.0 | 0.00 | 0.00 | 0.00 | 75 | 1020.2 |
| 20260502114610 | 39 | 31 | 1.0 | 1.0 | 0.00 | 0.00 | 0.00 | 75 | 1020.1 |
| 20260502114108 | 39 | 31 | 1.0 | 1.0 | 0.00 | 0.00 | 0.00 | 75 | 1020.2 |
| 20260502113605 | 39 | 31 | 1.0 | 1.0 | 0.00 | 0.00 | 0.00 | 75 | 1020.0 |
| 20260502113103 | 39 | 31 | 1.0 | 1.0 | 0.00 | 0.00 | 0.00 | 75 | 1020.1 |
| 20260502112600 | 39 | 31 | 1.0 | 1.0 | 0.00 | 0.00 | 0.00 | 74 | 1019.9 |
| 20260502112058 | 39 | 31 | 1.0 | 1.0 | 0.00 | 0.00 | 0.00 | 75 | 1020.1 |
| 20260502111555 | 39 | 31 | 0.0 | 0.0 | 0.00 | 0.00 | 0.00 | 74 | 1019.8 |
| 20260502111052 | 39 | 31 | 0.0 | 1.0 | 0.00 | 0.00 | 0.00 | 74 | 1020.1 |
| 20260502110550 | 40 | 31 | 0.0 | 1.0 | 0.00 | 0.00 | 0.00 | 73 | 1019.9 |
| 20260502110047 | 40 | 31 | 1.0 | 1.0 | 0.00 | 0.00 | 0.00 | 73 | 1019.9 |
| 20260502105544 | 40 | 31 | 0.0 | 1.0 | 0.00 | 0.00 | 0.00 | 73 | 1020.0 |
| 20260502105042 | 40 | 31 | 0.0 | 0.0 | 0.00 | 0.00 | 0.00 | 72 | 1019.6 |
| 20260502104539 | 40 | 31 | 0.0 | 0.0 | 0.00 | 0.00 | 0.00 | 72 | 1019.9 |
| 20260502104036 | 40 | 31 | 0.0 | 0.0 | 0.00 | 0.00 | 0.00 | 72 | 1019.8 |
| 20260502103534 | 41 | 31 | 1.0 | 1.0 | 0.00 | 0.00 | 0.00 | 72 | 1019.8 |
| 20260502103032 | 41 | 31 | 0.0 | 1.0 | 0.00 | 0.00 | 0.00 | 71 | 1019.8 |
| 20260502102528 | 41 | 31 | 1.0 | 1.0 | 0.00 | 0.00 | 0.00 | 71 | 1019.5 |
| 20260502102025 | 41 | 31 | 0.0 | 0.0 | 0.00 | 0.00 | 0.00 | 71 | 1019.6 |
| 20260502101523 | 41 | 31 | 0.0 | 1.0 | 0.00 | 0.00 | 0.00 | 70 | 1019.5 |
| 20260502101021 | 41 | 31 | 1.0 | 1.0 | 0.00 | 0.00 | 0.00 | 70 | 1019.3 |
| 20260502100520 | 41 | 31 | 0.0 | 1.0 | 0.00 | 0.00 | 0.00 | 70 | 1019.5 |
| 20260502091454 | 43 | 32 | 0.0 | 0.0 | 0.00 | 0.00 | 0.00 | 67 | 1019.0 |
| 20260502090951 | 43 | 32 | 0.0 | 1.0 | 0.00 | 0.00 | 0.00 | 66 | 1019.0 |
| 20260502090448 | 43 | 32 | 0.0 | 1.0 | 0.00 | 0.00 | 0.00 | 65 | 1018.9 |
| 20260502071342 | 47 | 40 | 1.0 | 1.0 | 0.00 | 0.00 | 0.00 | 54 | 1018.9 |
| 20260502070841 | 47 | 32 | 1.0 | 2.0 | 0.00 | 0.00 | 0.00 | 52 | 1018.9 |
| 20260502070338 | 47 | 38 | 2.0 | 2.0 | 0.00 | 0.00 | 0.00 | 52 | 1018.9 |
| 20260502065837 | 47 | 31 | 1.0 | 2.0 | 0.00 | 0.00 | 0.00 | 51 | 1018.9 |
| 20260502065335 | 47 | 2 | 1.0 | 3.0 | 0.00 | 0.00 | 0.00 | 50 | 1018.9 |
| 20260502064832 | 48 | 12 | 1.0 | 3.0 | 0.00 | 0.00 | 0.00 | 50 | 1019.0 |
| 20260502064330 | 48 | 29 | 1.0 | 2.0 | 0.00 | 0.00 | 0.00 | 50 | 1019.0 |
| 20260502063827 | 48 | 13 | 2.0 | 2.0 | 0.00 | 0.00 | 0.00 | 50 | 1018.9 |
| 20260502063325 | 48 | 22 | 1.0 | 2.0 | 0.00 | 0.00 | 0.00 | 50 | 1018.9 |
| 20260502062822 | 48 | 20 | 1.0 | 2.0 | 0.00 | 0.00 | 0.00 | 50 | 1019.0 |
| 20260502062319 | 48 | 32 | 1.0 | 1.0 | 0.00 | 0.00 | 0.00 | 50 | 1018.9 |
| 20260502061818 | 48 | 12 | 2.0 | 2.0 | 0.00 | 0.00 | 0.00 | 50 | 1019.0 |
| 20260502061315 | 48 | 359 | 1.0 | 2.0 | 0.00 | 0.00 | 0.00 | 49 | 1019.0 |
| 20260502060811 | 48 | 29 | 1.0 | 3.0 | 0.00 | 0.00 | 0.00 | 49 | 1019.0 |
| 20260502060306 | 48 | 20 | 1.0 | 2.0 | 0.00 | 0.00 | 0.00 | 49 | 1018.8 |
| 20260502055804 | 48 | 342 | 2.0 | 3.0 | 0.00 | 0.00 | 0.00 | 48 | 1019.1 |
| 20260502055305 | 49 | 355 | 2.0 | 2.0 | 0.00 | 0.00 | 0.00 | 48 | 1019.2 |
| 20260502054801 | 49 | 27 | 1.0 | 2.0 | 0.00 | 0.00 | 0.00 | 48 | 1019.1 |
| 20260502054258 | 49 | 12 | 1.0 | 2.0 | 0.00 | 0.00 | 0.00 | 48 | 1019.1 |
| 20260502053756 | 49 | 9 | 2.0 | 2.0 | 0.00 | 0.00 | 0.00 | 48 | 1019.1 |
| 20260502053253 | 49 | 343 | 2.0 | 2.0 | 0.00 | 0.00 | 0.00 | 48 | 1019.1 |
| 20260502052750 | 49 | 25 | 1.0 | 2.0 | 0.00 | 0.00 | 0.00 | 48 | 1018.9 |
| 20260502052248 | 49 | 10 | 1.0 | 2.0 | 0.00 | 0.00 | 0.00 | 48 | 1018.8 |
| 20260502051746 | 49 | 27 | 1.0 | 2.0 | 0.00 | 0.00 | 0.00 | 47 | 1018.9 |
| 20260502051244 | 50 | 11 | 1.0 | 2.0 | 0.00 | 0.00 | 0.00 | 48 | 1019.0 |
| 20260502050740 | 50 | 13 | 2.0 | 2.0 | 0.00 | 0.00 | 0.00 | 48 | 1019.0 |
| 20260502050236 | 50 | 22 | 1.0 | 2.0 | 0.00 | 0.00 | 0.00 | 48 | 1019.0 |
| 20260502045734 | 50 | 30 | 2.0 | 3.0 | 0.00 | 0.00 | 0.00 | 48 | 1018.9 |
| 20260502045231 | 50 | 23 | 1.0 | 3.0 | 0.00 | 0.00 | 0.00 | 48 | 1019.1 |
| 20260502044728 | 50 | 17 | 1.0 | 2.0 | 0.00 | 0.00 | 0.00 | 49 | 1019.0 |
| 20260502044223 | 50 | 11 | 2.0 | 3.0 | 0.00 | 0.00 | 0.00 | 48 | 1018.5 |
| 20260502043721 | 50 | 2 | 1.0 | 3.0 | 0.00 | 0.00 | 0.00 | 49 | 1018.8 |
| 20260502043219 | 50 | 10 | 1.0 | 2.0 | 0.00 | 0.00 | 0.00 | 49 | 1018.7 |
| 20260502042718 | 51 | 35 | 1.0 | 2.0 | 0.00 | 0.00 | 0.00 | 49 | 1018.6 |
| 20260502042215 | 51 | 14 | 2.0 | 2.0 | 0.00 | 0.00 | 0.00 | 49 | 1018.8 |
| 20260502041713 | 51 | 24 | 2.0 | 3.0 | 0.00 | 0.00 | 0.00 | 48 | 1018.7 |
| 20260502041210 | 51 | 28 | 2.0 | 2.0 | 0.00 | 0.00 | 0.00 | 49 | 1018.7 |
| 20260502040707 | 51 | 17 | 1.0 | 2.0 | 0.00 | 0.00 | 0.00 | 49 | 1018.8 |
| 20260502040204 | 51 | 12 | 2.0 | 2.0 | 0.00 | 0.00 | 0.00 | 49 | 1018.7 |
| 20260502035700 | 51 | 27 | 1.0 | 2.0 | 0.00 | 0.00 | 0.00 | 50 | 1018.6 |
| 20260502035157 | 51 | 14 | 1.0 | 2.0 | 0.00 | 0.00 | 0.00 | 50 | 1018.6 |
| 20260502034654 | 51 | 24 | 1.0 | 3.0 | 0.00 | 0.00 | 0.00 | 51 | 1018.6 |
| 20260502034153 | 52 | 19 | 1.0 | 2.0 | 0.00 | 0.00 | 0.00 | 51 | 1018.7 |
| 20260502033650 | 52 | 21 | 1.0 | 2.0 | 0.00 | 0.00 | 0.00 | 51 | 1018.5 |
| 20260502033148 | 52 | 20 | 1.0 | 2.0 | 0.00 | 0.00 | 0.00 | 51 | 1018.4 |
| 20260502032644 | 52 | 28 | 1.0 | 1.0 | 0.00 | 0.00 | 0.00 | 51 | 1018.2 |
| 20260502032140 | 52 | 25 | 1.0 | 2.0 | 0.00 | 0.00 | 0.00 | 50 | 1018.4 |
| 20260502031638 | 52 | 30 | 1.0 | 1.0 | 0.00 | 0.00 | 0.00 | 51 | 1018.3 |
| 20260502031136 | 52 | 36 | 1.0 | 2.0 | 0.00 | 0.00 | 0.00 | 52 | 1018.2 |
| 20260502030635 | 53 | 40 | 0.0 | 0.0 | 0.00 | 0.00 | 0.00 | 52 | 1018.0 |
| 20260502030132 | 53 | 40 | 0.0 | 0.0 | 0.00 | 0.00 | 0.00 | 51 | 1017.9 |
| 20260502025629 | 53 | 40 | 0.0 | 0.0 | 0.00 | 0.00 | 0.00 | 51 | 1018.0 |
| 20260502025127 | 53 | 40 | 0.0 | 0.0 | 0.00 | 0.00 | 0.00 | 51 | 1018.3 |
| 20260502024625 | 53 | 40 | 0.0 | 0.0 | 0.00 | 0.00 | 0.00 | 50 | 1017.8 |
| 20260502024123 | 53 | 40 | 0.0 | 0.0 | 0.00 | 0.00 | 0.00 | 50 | 1017.9 |
| 20260502023620 | 54 | 40 | 0.0 | 0.0 | 0.00 | 0.00 | 0.00 | 50 | 1017.6 |
| 20260502023117 | 54 | 41 | 0.0 | 0.0 | 0.00 | 0.00 | 0.00 | 50 | 1017.6 |
| 20260502022614 | 54 | 41 | 0.0 | 0.0 | 0.00 | 0.00 | 0.00 | 50 | 1017.6 |
| 20260502022111 | 54 | 41 | 0.0 | 0.0 | 0.00 | 0.00 | 0.00 | 49 | 1017.5 |
| 20260502021608 | 55 | 41 | 0.0 | 0.0 | 0.00 | 0.00 | 0.00 | 48 | 1017.1 |
| 20260502021105 | 55 | 41 | 0.0 | 0.0 | 0.00 | 0.00 | 0.00 | 48 | 1017.3 |
| 20260502020603 | 55 | 41 | 0.0 | 0.0 | 0.00 | 0.00 | 0.00 | 47 | 1017.4 |
| 20260502020100 | 55 | 44 | 0.0 | 0.0 | 0.00 | 0.00 | 0.00 | 47 | 1017.1 |
| 20260502015557 | 55 | 44 | 0.0 | 0.0 | 0.00 | 0.00 | 0.00 | 47 | 1017.0 |
| 20260502015054 | 56 | 49 | 0.0 | 0.0 | 0.00 | 0.00 | 0.00 | 48 | 1016.9 |
| 20260502014551 | 56 | 42 | 0.0 | 0.0 | 0.00 | 0.00 | 0.00 | 46 | 1016.8 |
| 20260502014048 | 56 | 41 | 0.0 | 0.0 | 0.00 | 0.00 | 0.00 | 45 | 1016.8 |
| 20260502013543 | 57 | 49 | 0.0 | 1.0 | 0.00 | 0.00 | 0.00 | 44 | 1016.9 |
| 20260502013040 | 57 | 42 | 0.0 | 0.0 | 0.00 | 0.00 | 0.00 | 44 | 1016.7 |
| 20260502012537 | 57 | 36 | 0.0 | 1.0 | 0.00 | 0.00 | 0.00 | 43 | 1016.7 |
| 20260502012035 | 58 | 37 | 1.0 | 2.0 | 0.00 | 0.00 | 0.00 | 42 | 1016.7 |
| 20260502011531 | 58 | 38 | 1.0 | 2.0 | 0.00 | 0.00 | 0.00 | 42 | 1016.4 |
| 20260502011027 | 59 | 17 | 2.0 | 2.0 | 0.00 | 0.00 | 0.00 | 41 | 1016.1 |
| 20260502010525 | 59 | 13 | 2.0 | 2.0 | 0.00 | 0.00 | 0.00 | 41 | 1016.1 |
| 20260502010021 | 59 | 17 | 1.0 | 2.0 | 0.00 | 0.00 | 0.00 | 41 | 1016.3 |
| 20260502005519 | 59 | 25 | 1.0 | 2.0 | 0.00 | 0.00 | 0.00 | 40 | 1016.3 |
| 20260502005017 | 59 | 36 | 1.0 | 2.0 | 0.00 | 0.00 | 0.00 | 40 | 1016.3 |
| 20260502004512 | 59 | 345 | 2.0 | 3.0 | 0.00 | 0.00 | 0.00 | 39 | 1016.1 |
| 20260502004009 | 60 | 285 | 3.0 | 3.0 | 0.00 | 0.00 | 0.00 | 40 | 1015.8 |
| 20260502003507 | 60 | 3 | 1.0 | 2.0 | 0.00 | 0.00 | 0.00 | 39 | 1015.9 |
| 20260502003003 | 60 | 354 | 2.0 | 3.0 | 0.00 | 0.00 | 0.00 | 38 | 1015.9 |
| 20260502002500 | 60 | 23 | 1.0 | 2.0 | 0.00 | 0.00 | 0.00 | 39 | 1015.7 |
| 20260502001958 | 60 | 324 | 2.0 | 3.0 | 0.00 | 0.00 | 0.00 | 39 | 1015.5 |
| 20260502001455 | 61 | 17 | 1.0 | 3.0 | 0.00 | 0.00 | 0.00 | 37 | 1015.7 |
| 20260502000953 | 61 | 334 | 2.0 | 3.0 | 0.00 | 0.00 | 0.00 | 37 | 1015.5 |
| 20260502000453 | 61 | 301 | 3.0 | 6.0 | 0.00 | 0.00 | 0.00 | 36 | 1015.7 |
| 20260501235947 | 61 | 354 | 3.0 | 5.0 | 0.00 | 0.00 | 0.00 | 36 | 1015.6 |
| 20260501235442 | 61 | 315 | 2.0 | 3.0 | 0.00 | 0.00 | 0.00 | 36 | 1015.5 |
| 20260501234938 | 62 | 5 | 1.0 | 5.0 | 0.00 | 0.00 | 0.00 | 36 | 1015.5 |
| 20260501234435 | 62 | 309 | 1.0 | 3.0 | 0.00 | 0.00 | 0.00 | 36 | 1015.3 |
| 20260501233934 | 62 | 319 | 2.0 | 3.0 | 0.00 | 0.00 | 0.00 | 36 | 1015.4 |
| 20260501233431 | 62 | 6 | 2.0 | 3.0 | 0.00 | 0.00 | 0.00 | 35 | 1015.3 |
| 20260501232926 | 62 | 297 | 2.0 | 3.0 | 0.00 | 0.00 | 0.00 | 34 | 1015.6 |
| 20260501232424 | 62 | 336 | 3.0 | 5.0 | 0.00 | 0.00 | 0.00 | 34 | 1015.6 |
| 20260501231921 | 62 | 288 | 2.0 | 5.0 | 0.00 | 0.00 | 0.00 | 34 | 1015.4 |
| 20260501231419 | 62 | 323 | 2.0 | 3.0 | 0.00 | 0.00 | 0.00 | 34 | 1015.5 |
| 20260501230917 | 62 | 302 | 2.0 | 6.0 | 0.00 | 0.00 | 0.00 | 34 | 1015.6 |
| 20260501230416 | 62 | 241 | 4.0 | 5.0 | 0.00 | 0.00 | 0.00 | 33 | 1015.6 |
| 20260501225913 | 63 | 320 | 2.0 | 3.0 | 0.00 | 0.00 | 0.00 | 34 | 1015.4 |
| 20260501225410 | 62 | 12 | 2.0 | 5.0 | 0.00 | 0.00 | 0.00 | 34 | 1015.2 |
| 20260501224906 | 63 | 303 | 1.0 | 5.0 | 0.00 | 0.00 | 0.00 | 35 | 1015.4 |
| 20260501224404 | 62 | 351 | 3.0 | 3.0 | 0.00 | 0.00 | 0.00 | 34 | 1015.5 |
| 20260501223900 | 63 | 347 | 5.0 | 10.0 | 0.00 | 0.00 | 0.00 | 33 | 1015.3 |
| 20260501223356 | 63 | 330 | 3.0 | 6.0 | 0.00 | 0.00 | 0.00 | 31 | 1015.3 |
| 20260501222852 | 63 | 337 | 3.0 | 6.0 | 0.00 | 0.00 | 0.00 | 34 | 1015.4 |
| 20260501222349 | 64 | 299 | 3.0 | 3.0 | 0.00 | 0.00 | 0.00 | 33 | 1015.4 |
| 20260501221846 | 63 | 245 | 1.0 | 5.0 | 0.00 | 0.00 | 0.00 | 32 | 1015.5 |
| 20260501221343 | 63 | 9 | 4.0 | 5.0 | 0.00 | 0.00 | 0.00 | 32 | 1015.3 |
| 20260501220841 | 63 | 312 | 4.0 | 6.0 | 0.00 | 0.00 | 0.00 | 31 | 1015.4 |